FW0229 Weather Reports


time (UTC)temp
F
wind
direction
speed
knots
gust
knots
rain 1hr
in
rain 24hr
in
rain mn
in
humidity
%
barometer
mb
20190424082516 65 0.0 0.0 0.00 0.00 0.00 75 1011.5
20190424081516 66 0.0 1.7 0.00 0.00 0.00 74 1011.5
20190424080516 66 0.0 1.7 0.00 0.00 0.00 73 1011.6
20190424075516 66 0.0 1.7 0.00 0.00 0.00 73 1011.6
20190424074516 66 0.0 2.6 0.00 0.00 0.00 73 1011.6
20190424073516 66 180 0.9 4.3 0.00 0.00 0.00 73 1011.6
20190424072516 67 135 0.9 4.3 0.00 0.00 0.00 73 1011.5
20190424071517 66 135 0.9 3.5 0.00 0.00 0.00 73 1011.7
20190424070516 66 0.0 1.7 0.00 0.00 0.00 73 1011.7
20190424065516 66 0.0 2.6 0.00 0.00 0.00 73 1011.7
20190424064516 67 0.0 1.7 0.00 0.00 0.00 73 1011.9
20190424063516 67 0.0 1.7 0.00 0.00 0.00 72 1011.8
20190424062516 67 0.0 0.9 0.00 0.00 0.00 73 1012.0
20190424061516 67 0.0 2.6 0.00 0.00 0.00 72 1011.9
20190424060516 67 0.0 1.7 0.00 0.00 0.00 72 1012.0
20190424055516 67 0.0 2.6 0.00 0.00 0.00 71 1012.3
20190424054516 68 0.0 1.7 0.00 0.00 0.00 70 1012.4
20190424053516 68 112 0.9 5.2 0.00 0.00 0.00 70 1012.5
20190424052516 68 0.0 1.7 0.00 0.00 0.00 70 1012.7
20190424051516 68 0.0 3.5 0.00 0.00 0.00 68 1012.7
20190424050516 69 0.0 0.0 0.00 0.00 0.00 68 1012.8
20190424045516 69 0.0 0.0 0.00 0.00 0.00 67 1012.8
20190424044516 69 0.0 0.0 0.00 0.00 0.00 66 1012.9
20190424043516 70 0.0 0.0 0.00 0.00 0.00 66 1013.0
20190424042516 70 180 1.7 7.0 0.00 0.00 0.00 65 1013.0
20190424041516 70 180 1.7 3.5 0.00 0.00 0.00 65 1013.0
20190424040516 70 157 1.7 4.3 0.00 0.00 0.00 64 1013.0
20190424035517 71 202 0.9 3.5 0.00 0.00 0.00 64 1013.0
20190424034517 71 135 0.9 5.2 0.00 0.00 0.00 62 1013.0
20190424033517 71 135 0.9 3.5 0.00 0.00 0.00 61 1013.2
20190424032517 72 157 0.9 2.6 0.00 0.00 0.00 60 1013.2
20190424031516 72 157 0.9 3.5 0.00 0.00 0.00 59 1013.2
20190424030517 73 0.0 0.0 0.00 0.00 0.00 58 1013.3
20190424025517 73 0.0 0.0 0.00 0.00 0.00 57 1013.2
20190424024517 73 0.0 0.0 0.00 0.00 0.00 57 1013.3
20190424023516 74 0.0 0.0 0.00 0.00 0.00 56 1013.2
20190424022517 74 0.0 0.0 0.00 0.00 0.00 56 1013.1
20190424021516 74 0.0 0.0 0.00 0.00 0.00 56 1013.2
20190424020517 74 0.0 0.0 0.00 0.00 0.00 55 1013.2
20190424015516 74 0.0 0.0 0.00 0.00 0.00 55 1013.2
20190424014516 74 0.0 0.0 0.00 0.00 0.00 54 1013.3
20190424013516 74 0.0 0.0 0.00 0.00 0.00 55 1013.3
20190424012516 74 0.0 0.0 0.00 0.00 0.00 56 1013.4
20190424011516 74 0.0 0.0 0.00 0.00 0.00 56 1013.4
20190424010517 74 0.0 0.0 0.00 0.00 0.00 56 1013.2
20190424005516 74 0.0 0.0 0.00 0.00 0.00 57 1013.3
20190424004516 74 0.0 0.0 0.00 0.00 0.00 58 1013.2
20190424003516 73 0.0 0.0 0.00 0.00 0.00 59 1013.2
20190424002516 72 0.0 0.0 0.00 0.00 0.00 61 1013.1
20190424001516 72 0.0 0.0 0.00 0.00 0.00 62 1013.0
20190424000516 74 0.0 0.0 0.00 0.00 0.00 57 1012.9
20190423235516 75 0.0 0.0 0.00 0.00 0.00 55 1012.9
20190423234516 78 0.0 0.9 0.00 0.00 0.00 47 1012.9
20190423233516 79 0.0 0.0 0.00 0.00 0.00 45 1012.9
20190423232516 80 0.0 0.9 0.00 0.00 0.00 44 1013.0
20190423231517 81 0.0 1.7 0.00 0.00 0.00 42 1012.9
20190423230516 81 0.0 1.7 0.00 0.00 0.00 41 1013.1
20190423225516 82 135 0.9 6.1 0.00 0.00 0.00 39 1013.2
20190423224516 82 0.0 1.7 0.00 0.00 0.00 39 1013.3
20190423223516 82 225 0.9 2.6 0.00 0.00 0.00 38 1013.3
20190423222516 82 180 0.9 3.5 0.00 0.00 0.00 38 1013.4
20190423221517 83 135 0.9 3.5 0.00 0.00 0.00 39 1013.5
20190423220517 83 202 0.9 2.6 0.00 0.00 0.00 38 1013.5
20190423215516 83 225 0.9 3.5 0.00 0.00 0.00 37 1013.5
20190423214516 83 112 0.9 3.5 0.00 0.00 0.00 37 1013.4
20190423213516 83 135 0.9 6.1 0.00 0.00 0.00 37 1013.5
20190423212516 83 270 0.9 2.6 0.00 0.00 0.00 36 1013.4
20190423211516 83 247 0.9 4.3 0.00 0.00 0.00 36 1013.5
20190423210516 83 112 0.9 7.0 0.00 0.00 0.00 38 1013.7
20190423205516 83 0.0 0.0 0.00 0.00 0.00 38 1013.7
20190423204516 83 0.0 0.0 0.00 0.00 0.00 38 1013.8
20190423203516 83 0.0 0.0 0.00 0.00 0.00 39 1014.0
20190423202516 83 0.0 0.0 0.00 0.00 0.00 38 1014.1
20190423201516 83 0.0 0.0 0.00 0.00 0.00 38 1014.1
20190423200516 83 0.0 0.0 0.00 0.00 0.00 38 1014.2
20190423195515 83 0.0 0.0 0.00 0.00 0.00 39 1014.3
20190423194515 83 0.0 0.0 0.00 0.00 0.00 40 1014.4
20190423193516 83 0.0 0.0 0.00 0.00 0.00 40 1014.5
20190423192515 82 0.0 0.0 0.00 0.00 0.00 40 1014.6
20190423191516 83 0.0 0.0 0.00 0.00 0.00 38 1014.8
20190423190516 83 0.0 0.0 0.00 0.00 0.00 39 1015.1
20190423185516 82 0.0 0.0 0.00 0.00 0.00 40 1015.3
20190423184516 83 0.0 0.0 0.00 0.00 0.00 39 1015.6
20190423183516 82 0.0 0.0 0.00 0.00 0.00 40 1015.7
20190423182515 82 0.0 0.0 0.00 0.00 0.00 42 1015.9
20190423181515 82 0.0 0.0 0.00 0.00 0.00 42 1016.1
20190423180516 82 0.0 0.0 0.00 0.00 0.00 41 1016.3
20190423175515 81 0.0 0.0 0.00 0.00 0.00 43 1016.4
20190423174516 80 0.0 0.0 0.00 0.00 0.00 43 1016.6
20190423173515 80 0.0 0.0 0.00 0.00 0.00 45 1016.6
20190423172516 80 0.0 0.0 0.00 0.00 0.00 43 1016.7
20190423171516 80 0.0 0.0 0.00 0.00 0.00 44 1016.8
20190423170515 80 0.0 0.0 0.00 0.00 0.00 49 1017.0
20190423165516 79 0.0 0.0 0.00 0.00 0.00 46 1017.2
20190423164515 79 0.0 0.0 0.00 0.00 0.00 48 1017.5
20190423163516 78 0.0 0.0 0.00 0.00 0.00 50 1017.7
20190423162515 77 0.0 0.0 0.00 0.00 0.00 48 1017.8
20190423161515 77 0.0 0.0 0.00 0.00 0.00 51 1018.0
20190423160515 76 0.0 0.0 0.00 0.00 0.00 51 1018.1
20190423155515 76 0.0 0.0 0.00 0.00 0.00 51 1018.3
20190423154515 76 0.0 0.0 0.00 0.00 0.00 48 1018.5
20190423153515 76 0.0 0.0 0.00 0.00 0.00 50 1018.6
20190423152515 74 0.0 0.0 0.00 0.00 0.00 50 1018.6
20190423151515 74 0.0 0.0 0.00 0.00 0.00 49 1018.6
20190423150515 74 0.0 0.0 0.00 0.00 0.00 51 1018.8
20190423145515 73 292 0.9 3.5 0.00 0.00 0.00 51 1018.8
20190423144515 72 225 0.9 3.5 0.00 0.00 0.00 51 1019.1
20190423143515 72 0.0 1.7 0.00 0.00 0.00 52 1019.0
20190423142516 71 0.0 0.0 0.00 0.00 0.00 54 1019.2
20190423141515 70 0.0 0.0 0.00 0.00 0.00 55 1019.2
20190423140515 69 0.0 0.0 0.00 0.00 0.00 58 1019.3
20190423135515 68 0.0 2.6 0.00 0.00 0.00 61 1019.3
20190423134515 68 0.0 0.0 0.00 0.00 0.00 62 1019.3
20190423133515 67 0.0 0.0 0.00 0.00 0.00 63 1019.2
20190423132515 66 0.0 0.0 0.00 0.00 0.00 64 1019.2
20190423131515 65 0.0 0.0 0.00 0.00 0.00 67 1019.2
20190423130515 64 0.0 0.0 0.00 0.00 0.00 69 1019.2
20190423125515 63 0.0 0.0 0.00 0.00 0.00 72 1019.2
20190423124515 61 0.0 0.9 0.00 0.00 0.00 74 1019.3
20190423123517 60 0.0 0.0 0.00 0.00 0.00 77 1019.2
20190423122517 58 0.0 0.0 0.00 0.00 0.00 86 1019.3
20190423121517 55 0.0 0.0 0.00 0.00 0.00 93 1019.3
20190423120517 54 0.0 0.0 0.00 0.00 0.00 94 1019.1
20190423115517 52 0.0 0.0 0.00 0.00 0.00 94 1019.2
20190423114517 51 0.0 0.0 0.00 0.00 0.00 94 1019.2
20190423113517 50 0.0 0.0 0.00 0.00 0.00 94 1019.3
20190423112517 50 0.0 0.0 0.00 0.00 0.00 94 1019.3
20190423111517 49 0.0 0.0 0.00 0.00 0.00 94 1019.4
20190423110517 49 0.0 0.0 0.00 0.00 0.00 94 1019.4
20190423105517 48 0.0 0.0 0.00 0.00 0.00 94 1019.3
20190423104517 48 0.0 0.0 0.00 0.00 0.00 94 1019.2
20190423103517 48 0.0 0.0 0.00 0.00 0.00 94 1019.2
20190423102517 48 0.0 0.0 0.00 0.00 0.00 94 1019.1
20190423101517 48 0.0 0.0 0.00 0.00 0.00 94 1018.9
20190423100517 48 0.0 0.0 0.00 0.00 0.00 94 1019.0
20190423095516 48 0.0 0.0 0.00 0.00 0.00 94 1018.9
20190423094516 48 0.0 0.0 0.00 0.00 0.00 94 1018.9
20190423093516 49 0.0 0.0 0.00 0.00 0.00 94 1019.0
20190423092517 49 0.0 0.0 0.00 0.00 0.00 94 1019.0
20190423091516 49 0.0 0.0 0.00 0.00 0.00 94 1018.9
20190423090517 49 0.0 0.0 0.00 0.00 0.00 94 1018.8
20190423085517 49 0.0 0.0 0.00 0.00 0.00 93 1018.8
20190423084516 49 0.0 0.0 0.00 0.00 0.00 94 1018.8
20190423083517 49 0.0 0.0 0.00 0.00 0.00 94 1018.9